Regional Weather Roundup
Issued by NWS Kansas City/Pleasant Hill, MO

Home | Current Version | Previous Version | Graphics & Text | Print | Product List | Glossary Off
Versions: 1 2 3 4 5 6 7 8 9 10 11 12 13 14 15 16 17 18 19 20 21 22 23 24 25 26 27 28 29 30 31 32 33 34 35 36 37 38 39 40 41 42 43 44 45 46 47 48 49 50

000
ASUS43 KEAX 290004
RWREAX

WEATHER ROUNDUP FOR EASTERN KANSAS AND NORTHWEST MISSOURI
NATIONAL WEATHER SERVICE KANSAS CITY/PLEASANT HILL MO
700 PM CDT THU AUG 28 2014

KSZ040-057-103>105-MOZ028-029-037-043-290100-
...KANSAS CITY METROPOLITAN AREA...

CITY           SKY/WX    TMP DP  RH WIND       PRES   REMARKS
K.C. INTL      PTCLDY    86  68  54 S14       29.86F
6HR MIN TEMP:  86; 6HR MAX TEMP:  93;

K.C. DOWNTOWN  CLEAR     90  66  45 S15G21    29.85F HX  92
6HR MIN TEMP:  88; 6HR MAX TEMP:  95;

LEES SUMMIT    CLEAR     88  66  48 S9        29.88F HX  90
6HR MIN TEMP:  87; 6HR MAX TEMP:  91;

OLATHE - IXD   CLEAR     88  66  48 SE13      29.87F HX  90
6HR MIN TEMP:  88; 6HR MAX TEMP:  95;

OLATHE - OJC   CLEAR     86  67  52 S12       29.87F
6HR MIN TEMP:  86; 6HR MAX TEMP:  91;

LAWRENCE       SUNNY     93  64  38 S9        29.83F HX  94

$$

MOZ001>008-011>017-020>025-030>033-038>040-044>046-053-054-290100-
...NORTHERN AND CENTRAL MISSOURI...

CITY           SKY/WX    TMP DP  RH WIND       PRES   REMARKS
ST. JOSEPH     PTCLDY    87  71  58 SE9       29.83F HX  93
6HR MIN TEMP:  85; 6HR MAX TEMP:  91;

MOSBY          CLEAR     88  68  51 SE5       29.86F HX  91
WHITEMAN AFB   PTCLDY    86  73  64 SE3       29.88F HX  94
6HR MIN TEMP:  86; 6HR MAX TEMP:  91; 6HR PCP: TRACE;

CLINTON        CLEAR     90  66  45 CALM      29.89S HX  92
SEDALIA        PTCLDY    88  67  49 S5        29.90F HX  91
6HR MIN TEMP:  88; 6HR MAX TEMP:  93;

WARSAW         NOT AVBL
MARSHALL       CLEAR     88  75  66 CALM      29.90F HX  97
CHILLICOTHE      N/A     86  73  65 S5        29.89S HX  93
6HR MIN TEMP:  75; 6HR MAX TEMP:  88;

MOBERLY        CLEAR     88  72  58 E5        29.92  HX  94
KIRKSVILLE     PTCLDY    81  73  76 E6        29.93F
6HR MIN TEMP:  77; 6HR MAX TEMP:  85; 6HR PCP:  0.03;


$$

MOZ041-047>049-056>058-063>065-088>090-097-290100-
...EASTERN AND SOUTHERN MISSOURI...

CITY           SKY/WX    TMP DP  RH WIND       PRES   REMARKS
ST. LOUIS INTL LGT RAIN  77  73  87 N9        29.97R
6HR MIN TEMP:  77; 6HR MAX TEMP:  92; 6HR PCP:  0.19;

SPIRIT OF STL  MOCLDY    77  71  82 E7        29.94R
COLUMBIA       CLEAR     88  69  53 S6        29.91F HX  92
JEFFERSON CITY CLEAR     90  69  50 SE3       29.89F HX  94
ROLLA          CLEAR     88  63  43 S6        29.93S
LEBANON        CLEAR     90  57  33 SE7       29.94F
OSAGE BEACH    CLEAR     90  63  40 SE3       29.91S HX  90
SPRINGFIELD    CLEAR     89  58  34 S8        29.92S
BRANSON        PTCLDY    90  59  35 S7        29.95F
NEVADA         CLEAR     90  63  40 S6        29.90S HX  90
JOPLIN         CLEAR     89  59  36 S10       29.91R
WEST PLAINS    PTCLDY    88  61  40 SE3       29.96S

$$

IAZ060-094-KSZ022-034>040-054-083-096-NEZ052-066-093-290100-
...KANSAS...SOUTHEAST NEBRASKA AND IOWA...

CITY           SKY/WX    TMP DP  RH WIND       PRES   REMARKS
TOPEKA         PTSUNNY   90  62  39 S6        29.82F HX  90
6HR MIN TEMP:  90; 6HR MAX TEMP:  95;

MANHATTAN      CLOUDY    79  71  76 SE3       29.83F
EMPORIA        CLOUDY    84  67  56 S8        29.85S
CHANUTE        SUNNY     90  59  35 S15       29.88F
WICHITA        CLOUDY    77  66  68 S10       29.87F
OMAHA          CLOUDY    80  71  74 SE9       29.84F
LINCOLN        CLOUDY    78  69  73 S6        29.84F
FALLS CITY     PTSUNNY   80  75  84 NW7       29.84S
LAMONI         PTCLDY    79  73  82 E5        29.89F
DES MOINES     MOCLDY    78  72  81 E9        29.89F

$$




USA.gov is the U.S. government's official web portal to all federal, state and local government web resources and services.